This is the latest recevied weather packets stored in our database for station/object AA4OM-2. If no packets are shown the sender has not sent any weather packets the latest 10 day(s).
| Time | Temp. | Humidity | Pressure | Rain* | Wind** | Luminosity | Snow |
|---|---|---|---|---|---|---|---|
| 1777666088 | 18.33° C | 31% | 1016.9 hPa | 0 mm | - | 660 W/m² | - |
| 1777665784 | 18.33° C | 35% | 1016.7 hPa | 0 mm | - | 833 W/m² | - |
| 1777665482 | 18.33° C | 39% | 1016.8 hPa | 0 mm | - | 671 W/m² | - |
| 1777665177 | 18.33° C | 33% | 1016.9 hPa | 0 mm | - | 491 W/m² | - |
| 1777664874 | 18.33° C | 34% | 1017 hPa | 0 mm | - | 458 W/m² | - |
| 1777664570 | 18.33° C | 33% | 1016.9 hPa | 0 mm | - | 557 W/m² | - |
| 1777664267 | 18.33° C | 32% | 1017.1 hPa | 0 mm | - | 652 W/m² | - |
| 1777663965 | 18.33° C | 32% | 1017.4 hPa | 0 mm | - | 695 W/m² | - |
| 1777663662 | 18.33° C | 34% | 1017.4 hPa | 0 mm | - | 615 W/m² | - |
| 1777663359 | 18.33° C | 34% | 1017.6 hPa | 0 mm | - | 608 W/m² | - |
| 1777663056 | 17.78° C | 32% | 1017.5 hPa | 0 mm | - | 756 W/m² | - |
| 1777662753 | 17.78° C | 32% | 1017.6 hPa | 0 mm | - | 840 W/m² | - |
| 1777662450 | 18.33° C | 33% | 1017.5 hPa | 0 mm | - | 636 W/m² | - |
| 1777662145 | 18.33° C | 32% | 1017.6 hPa | 0 mm | - | 649 W/m² | - |
| 1777661842 | 18.33° C | 38% | 1017.4 hPa | 0 mm | - | 878 W/m² | - |
| 1777661538 | 17.78° C | 33% | 1017.6 hPa | 0 mm | - | 946 W/m² | - |
| 1777661233 | 17.78° C | 35% | 1017.5 hPa | 0 mm | - | 861 W/m² | - |
| 1777660929 | 17.78° C | 32% | 1017.6 hPa | 0 mm | - | 851 W/m² | - |
| 1777660625 | 17.78° C | 35% | 1017.6 hPa | 0 mm | - | 824 W/m² | - |
| 1777660323 | 17.78° C | 33% | 1017.5 hPa | 0 mm | - | 781 W/m² | - |
| 1777660019 | 17.78° C | 32% | 1017.7 hPa | 0 mm | - | 982 W/m² | - |
| 1777659715 | 17.78° C | 32% | 1017.4 hPa | 0 mm | - | 886 W/m² | - |
| 1777659413 | 17.78° C | 33% | 1017.6 hPa | 0 mm | - | 993 W/m² | - |
| 1777659110 | 17.78° C | 39% | 1017.8 hPa | 0 mm | - | 993 W/m² | - |
| 1777658808 | 17.78° C | 35% | 1017.4 hPa | 0 mm | - | 985 W/m² | - |
* Rain latest hour (hover to see other rain measurements)
** Current wind speed in m/s (hover to see current wind gust speed)